Peru, IN

5:28 AM EDT on July 25, 2017 (GMT -0400)
Grissom Air Reserve Base

Weather History for KGUS - September, 2012

Change the Weather History Date:

Monday, September 3, 2012

  Actual Average Record
Temperature  
Mean Temperature 76 °F -  
Max Temperature 84 °F 78 °F 94 °F (2011)
Min Temperature 69 °F 58 °F 51 °F (2013)
Cooling Degree Days 10    
Growing Degree Days 26 (Base 50)    
Moisture  
Dew Point 71 °F    
Average Humidity 92    
Maximum Humidity 100    
Minimum Humidity 71    
Precipitation  
Precipitation 0.01 in - - ()
Sea Level Pressure  
Sea Level Pressure 29.88 in    
Wind  
Wind Speed 7 mph (ENE)    
Max Wind Speed 10 mph    
Max Gust Speed -    
Visibility 9 miles    
Events      
Averages and records for this station are not official NWS values.
T = Trace of Precipitation, MM = Missing Value Source: NWS Daily Summary

Daily Weather History Graph

Daily Weather History Graph

Search for Another Location

Airport or City:

Trip Planner

Search our weather history database for the weather conditions in past years. The results will help you decide how hot, cold, wet, or windy it might be!

Date:

Astronomy

Sep. 03, 2012 Rise Set
Actual Time 7:14 AM EDT 8:12 PM EDT
Civil Twilight 6:46 AM EDT 8:40 PM EDT
Nautical Twilight 6:12 AM EDT 9:13 PM EDT
Astronomical Twilight 5:38 AM EDT 9:48 PM EDT
Moon 9:30 PM EDT (9/3) 10:23 AM EDT (9/3)
Length of Visible Light 13h 54m
Length of Day
12h 58m
Waning Gibbous, 90% of the Moon is Illuminated
Sep 3
Waning Gibbous
Sep 8
Last Quarter
Sep 15
New
Sep 22
First Quarter
Sep 29
Full

Hourly Weather History & Observations

Time (EDT) Temp. Heat Index Dew Point Humidity Pressure Visibility Wind Dir Wind Speed Gust Speed Precip Events Conditions
12:10 AM 71.6 °F - 71.6 °F 100% 29.88 in 10.0 mi SSE 9.2 mph - N/A   Overcast
12:21 AM 71.6 °F - 71.6 °F 100% 29.89 in 10.0 mi ESE 10.4 mph - N/A   Light Drizzle
12:33 AM 73.4 °F - 71.6 °F 94% 29.89 in 10.0 mi ESE 10.4 mph - N/A   Overcast
12:37 AM 73.4 °F - 71.6 °F 94% 29.89 in 10.0 mi East 5.8 mph - N/A   Overcast
12:47 AM 73.4 °F - 71.6 °F 94% 29.89 in 10.0 mi East 4.6 mph - N/A   Overcast
12:55 AM 72.7 °F - 71.8 °F 97% 29.88 in 10.0 mi East 5.8 mph - 0.01 in   Overcast
1:09 AM 73.4 °F - 71.6 °F 94% 29.88 in 10.0 mi East 5.8 mph - N/A   Overcast
1:20 AM 73.4 °F - 71.6 °F 94% 29.88 in 10.0 mi East 4.6 mph - N/A   Overcast
1:25 AM 71.6 °F - 71.6 °F 100% 29.88 in 10.0 mi East 3.5 mph - N/A   Overcast
1:55 AM 72.1 °F - 71.8 °F 99% 29.88 in 10.0 mi NE 4.6 mph - N/A   Overcast
2:31 AM 71.6 °F - 71.6 °F 100% 29.87 in 10.0 mi NNE 5.8 mph - N/A   Overcast
2:52 AM 71.6 °F - 71.6 °F 100% 29.87 in 10.0 mi NE 6.9 mph - N/A   Overcast
2:55 AM 72.3 °F - 72.0 °F 99% 29.87 in 10.0 mi NE 6.9 mph - N/A   Overcast
3:02 AM 71.6 °F - 71.6 °F 100% 29.87 in 9.0 mi NE 6.9 mph - N/A   Overcast
3:28 AM 71.6 °F - 71.6 °F 100% 29.86 in 9.0 mi ENE 9.2 mph - N/A   Mostly Cloudy
3:55 AM 72.1 °F - 71.2 °F 97% 29.86 in 10.0 mi East 9.2 mph - N/A   Overcast
4:55 AM 72.0 °F - 71.1 °F 97% 29.86 in 10.0 mi East 6.9 mph - N/A   Mostly Cloudy
5:36 AM 71.6 °F - 71.6 °F 100% 29.86 in 9.0 mi NNE 5.8 mph - N/A   Overcast
5:47 AM 71.6 °F - 71.6 °F 100% 29.86 in 8.0 mi NE 6.9 mph - N/A   Overcast
5:55 AM 70.5 °F - 70.5 °F 100% 29.86 in 7.0 mi ENE 6.9 mph - N/A   Mostly Cloudy
6:13 AM 69.8 °F - 69.8 °F 100% 29.86 in 6.0 mi NE 6.9 mph - N/A   Mostly Cloudy
6:21 AM 69.8 °F - 69.8 °F 100% 29.86 in 6.0 mi NE 8.1 mph - N/A   Mostly Cloudy
6:55 AM 70.7 °F - 70.7 °F 100% 29.86 in 7.0 mi ENE 8.1 mph - N/A   Overcast
7:00 AM 69.8 °F - 69.8 °F 100% 29.86 in 7.0 mi ENE 6.9 mph - N/A   Overcast
7:08 AM 71.6 °F - 71.6 °F 100% 29.87 in 7.0 mi NE 8.1 mph - N/A   Overcast
7:48 AM 71.6 °F - 69.8 °F 94% 29.89 in 6.0 mi NE 10.4 mph - N/A   Overcast
7:55 AM 70.9 °F - 70.3 °F 98% 29.89 in 6.0 mi ENE 9.2 mph - N/A   Overcast
8:12 AM 71.6 °F - 69.8 °F 94% 29.89 in 7.0 mi ENE 8.1 mph - N/A   Overcast
8:55 AM 71.4 °F - 70.5 °F 97% 29.89 in 8.0 mi ENE 8.1 mph - N/A   Overcast
10:01 AM 73.4 °F - 71.6 °F 94% 29.89 in 10.0 mi ENE 10.4 mph - N/A   Overcast
10:29 AM 73.4 °F - 71.6 °F 94% 29.89 in 10.0 mi ENE 10.4 mph - N/A   Overcast
10:55 AM 74.5 °F - 71.1 °F 89% 29.89 in 10.0 mi East 9.2 mph - N/A   Overcast
11:55 AM 76.6 °F - 71.8 °F 85% 29.89 in 10.0 mi East 10.4 mph - N/A   Overcast
12:02 PM 77.0 °F - 71.6 °F 83% 29.89 in 10.0 mi East 9.2 mph - N/A   Mostly Cloudy
12:55 PM 79.2 °F - 71.8 °F 78% 29.89 in 10.0 mi ENE 9.2 mph - N/A   Overcast
12:58 PM 78.8 °F - 71.6 °F 78% 29.89 in 10.0 mi East 6.9 mph - N/A   Overcast
1:36 PM 80.6 °F 84.6 °F 71.6 °F 74% 29.89 in 10.0 mi East 6.9 mph - N/A   Overcast
1:55 PM 81.7 °F 86.5 °F 72.1 °F 73% 29.88 in 10.0 mi Variable 6.9 mph - N/A   Mostly Cloudy
2:55 PM 82.4 °F 87.4 °F 72.0 °F 71% 29.88 in 10.0 mi ENE 5.8 mph - N/A   Overcast
3:55 PM 82.0 °F 87.2 °F 72.7 °F 73% 29.87 in 10.0 mi ENE 8.1 mph - N/A   Overcast
4:55 PM 82.8 °F 88.2 °F 72.3 °F 71% 29.86 in 10.0 mi ENE 9.2 mph - N/A   Overcast
5:55 PM 82.2 °F 87.1 °F 72.0 °F 71% 29.85 in 10.0 mi East 6.9 mph - N/A   Mostly Cloudy
6:55 PM 81.9 °F 86.6 °F 72.0 °F 72% 29.85 in 10.0 mi East 5.8 mph - N/A   Clear
7:55 PM 79.5 °F - 72.1 °F 78% 29.86 in 10.0 mi East 5.8 mph - N/A   Clear
8:55 PM 75.2 °F - 71.6 °F 89% 29.87 in 10.0 mi SE 3.5 mph - N/A   Clear
9:55 PM 73.9 °F - 71.4 °F 92% 29.90 in 10.0 mi Calm Calm - N/A   Clear
10:55 PM 72.7 °F - 70.9 °F 94% 29.91 in 10.0 mi Calm Calm - N/A   Clear
11:55 PM 71.4 °F - 70.3 °F 96% 29.90 in 10.0 mi Calm Calm - N/A   Clear